Regional Weather Roundup
Issued by NWS

Home | Current Version | Previous Version | Text Only | Print | Product List | Glossary Off
Versions: 1 2 3 4 5 6 7 8 9 10 11 12 13 14 15 16 17 18 19 20 21 22 23 24 25 26 27 28 29 30 31 32 33 34 35 36 37 38 39 40 41 42 43 44 45 46 47 48 49 50

000
ASUS43 KMKX 030611
RWRWI

WISCONSIN REGIONAL WEATHER ROUNDUP
NATIONAL WEATHER SERVICE MILWAUKEE/SULLIVAN WI
100 AM CDT WED SEP 03 2014

NOTE: "FAIR" INDICATES FEW OR NO CLOUDS BELOW 12,000 FEET WITH NO
SIGNIFICANT WEATHER AND/OR OBSTRUCTIONS TO VISIBILITY.

WIZ001-002-006>008-014>016-023>028-030700-
NORTHWEST WISCONSIN

CITY           SKY/WX    TMP DP  RH WIND       PRES   REMARKS
SUPERIOR ARPT  CLOUDY    58  56  95 SW8       29.81S
6HR MIN TEMP:  51; 6HR MAX TEMP:  66;

ASHLAND        FAIR      51  50  96 CALM      29.84F
6HR MIN TEMP:  51; 6HR MAX TEMP:  67;

HAYWARD        FAIR      54  52  93 CALM      29.87S
6HR MIN TEMP:  53; 6HR MAX TEMP:  71;

SIREN          FAIR      64  54  69 SW8       29.86S
6HR MIN TEMP:  60; 6HR MAX TEMP:  71;

RICE LAKE      FAIR      57  53  89 CALM      29.90S
6HR MIN TEMP:  55; 6HR MAX TEMP:  71;

LADYSMITH      FAIR      56  54  93 CALM      29.92R
6HR MIN TEMP:  54; 6HR MAX TEMP:  70;

EAU CLAIRE     FAIR      60  58  92 S3        29.90R
6HR MIN TEMP:  58; 6HR MAX TEMP:  73;

MENOMONIE      FAIR      61  56  83 CALM      29.90S
6HR MIN TEMP:  59; 6HR MAX TEMP:  74;

NEW RICHMOND   FAIR      59  55  87 S5        29.90R
6HR MIN TEMP:  59; 6HR MAX TEMP:  69;

OSCEOLA        FAIR      58  57  97 SE3       29.91R
6HR MIN TEMP:  56; 6HR MAX TEMP:  72;

$$

WIZ003>005-009-010-017-018-030700-
NORTH CENTRAL WISCONSIN

CITY           SKY/WX    TMP DP  RH WIND       PRES   REMARKS
WOODRUFF       FAIR      55  52  90 CALM      29.92R
6HR MIN TEMP:  52; 6HR MAX TEMP:  69;

RHINELANDER    FAIR      52  50  93 CALM      29.93S
6HR MIN TEMP:  51; 6HR MAX TEMP:  67;

EAGLE RIVER    FAIR      48  48 100 CALM      29.91R FOG
6HR MIN TEMP:  47; 6HR MAX TEMP:  65;

LAND O LAKES   FAIR      47  46  98 CALM      29.92R
6HR MIN TEMP:  47; 6HR MAX TEMP:  67;

PHILLIPS       FAIR      52  52 100 CALM      29.90S
6HR MIN TEMP:  51; 6HR MAX TEMP:  68;

TOMAHAWK       FAIR      48  47  97 CALM      29.93S
6HR MIN TEMP:  47; 6HR MAX TEMP:  67;

MEDFORD        FAIR      56  52  89 SW5       29.93R
6HR MIN TEMP:  52; 6HR MAX TEMP:  67;

MERRILL        FAIR      49  49 100 CALM      29.93R
6HR MIN TEMP:  48; 6HR MAX TEMP:  69;

$$

WIZ029-030-035-036-043>047-030700-
CENTRAL WISCONSIN

CITY           SKY/WX    TMP DP  RH WIND       PRES   REMARKS
WAUSAU         FAIR      57  55  93 SE3       29.92R
6HR MIN TEMP:  56; 6HR MAX TEMP:  71;

MOSINEE        FAIR      54  54 100 S3        29.95R
MARSHFIELD     FAIR      57  55  93 SW6       29.93R
6HR MIN TEMP:  56; 6HR MAX TEMP:  70;

STEVENS POINT  FAIR      55  55  98 CALM      29.95R
6HR MIN TEMP:  53; 6HR MAX TEMP:  69;

WAUPACA        FAIR      59  57  94 CALM      29.94R
6HR MIN TEMP:  59; 6HR MAX TEMP:  74;

WAUTOMA        FAIR      56  55  96 CALM      29.96R
6HR MIN TEMP:  56; 6HR MAX TEMP:  74;

WISC RAPIDS    FAIR      57  56  96 CALM      29.96R
6HR MIN TEMP:  55; 6HR MAX TEMP:  72;

CAMP DOUGLAS   FAIR      57  57 100 SE2       29.95R
6HR MIN TEMP:  56; 6HR MAX TEMP:  72;

$$

WIZ011>013-019>022-031-037>040-048>050-030700-
NORTHEAST WISCONSIN

CITY           SKY/WX    TMP DP  RH WIND       PRES   REMARKS
ANTIGO         FAIR      53  52  97 CALM      29.93S
6HR MIN TEMP:  51; 6HR MAX TEMP:  67;

STURGEON BAY   FAIR      61  55  82 S5        29.92R
6HR MIN TEMP:  61; 6HR MAX TEMP:  70;

GREEN BAY      FAIR      56  56 100 SW3       29.93R
6HR MIN TEMP:  56; 6HR MAX TEMP:  70;

MANITOWOC      FAIR      63  59  87 W3        29.94R
6HR MIN TEMP:  60; 6HR MAX TEMP:  74;

APPLETON       FAIR      63  55  77 SW8       29.95R
CLINTONVILLE   FAIR      55  54  94 CALM      29.93R
OSHKOSH        FAIR      63  57  81 SW6       29.94R
6HR MIN TEMP:  60; 6HR MAX TEMP:  73;

$$

WIZ032>034-041-042-053>061-030700-
SOUTHWEST WISCONSIN

CITY           SKY/WX    TMP DP  RH WIND       PRES   REMARKS
LA CROSSE      FAIR      65  61  87 S5        29.93R
6HR MIN TEMP:  64; 6HR MAX TEMP:  77;

SPARTA         FAIR      54  53  95 CALM      29.95R
6HR MIN TEMP:  54; 6HR MAX TEMP:  74;

VIROQUA        FAIR      61  61 100 S3        29.97R
6HR MIN TEMP:  61; 6HR MAX TEMP:  71;

BOSCOBEL       FOG       58  56  93 CALM      29.97R VSB 3/4
6HR MIN TEMP:  58; 6HR MAX TEMP:  76;

PRAIRIE DU CHI FAIR      59  57  93 CALM      29.96S
6HR MIN TEMP:  59; 6HR MAX TEMP:  75;

PLATTEVILLE    FAIR      61  58  91 CALM      30.00R
6HR MIN TEMP:  60; 6HR MAX TEMP:  72;

$$

WIZ056-057-062-063-064-067-068-030700-
SOUTH CENTRAL WISCONSIN

CITY           SKY/WX    TMP DP  RH WIND       PRES   REMARKS
BARABOO/DELLS  FAIR      61  55  82 SW3       29.96S
6HR MIN TEMP:  60; 6HR MAX TEMP:  73;

LONE ROCK      FAIR      61  56  83 E3        29.97R
6HR MIN TEMP:  61; 6HR MAX TEMP:  77;

WATERTOWN      FAIR      56  56 100 CALM      29.96S
6HR MIN TEMP:  56; 6HR MAX TEMP:  73;

MADISON        FAIR      60  57  89 CALM      29.97R
6HR MIN TEMP:  60; 6HR MAX TEMP:  74;

MIDDLETON      FAIR      60  58  92 CALM      29.98R
6HR MIN TEMP:  58; 6HR MAX TEMP:  73;

MONROE         FAIR      63  57  82 SW6       29.99R
JANESVILLE     FAIR      61  57  88 CALM      29.98R
$$

WIZ051-052-058>065-066-070>072-030700-
SOUTHEAST WISCONSIN

CITY           SKY/WX    TMP DP  RH WIND       PRES   REMARKS
MILWAUKEE      FAIR      66  58  75 S3        29.97R
6HR MIN TEMP:  64; 6HR MAX TEMP:  76;

WAUKESHA       FAIR      59  55  88 CALM      29.98S
MILWAUKEE/TIMM FAIR      61  55  82 CALM      29.98R
RACINE         FAIR      65  58  78 W5        29.98S
6HR MIN TEMP:  61; 6HR MAX TEMP:  75;

BURLINGTON     FAIR      55  55 100 SW3       29.98R
6HR MIN TEMP:  54; 6HR MAX TEMP:  71;

KENOSHA        FAIR      62  59  90 SW3       29.98R
6HR MIN TEMP:  59; 6HR MAX TEMP:  73;

FOND DU LAC    FAIR      61  57  87 SW6       29.95R
6HR MIN TEMP:  59; 6HR MAX TEMP:  73;

SHEBOYGAN      FAIR      57  55  93 CALM      29.95R
6HR MIN TEMP:  57; 6HR MAX TEMP:  72; 6HR PCP: TRACE;

WEST BEND      FAIR      55  54  94 CALM      29.97R
JUNEAU         FAIR      60  57  91 S3        29.97S
6HR MIN TEMP:  60; 6HR MAX TEMP:  72;

$$

LSZ147-162-030700-
LAKE SUPERIOR

STATION/POSITION TIME  TEMP    WIND        PRES    WAVE
                       AIR SEA DIR/SP/G            HT/PER
                 (UTC) (F)     (DEG/KT/KT) (MB)    (FT/S)
W MID LAKE BUOY  0550   60 58  190/ 12/ 14 1009.0F   2/ 5
DEVILS ISLAND    0600   62     210/ 11/ 16 1009.1F
PORT WING        0500   64     180/  8/ 11 1009.5F
SAXON HARBOR     0540   59     200/  4/  7 1010.2F
$$

LMZ867-665-643>646-030700-
LAKE MICHIGAN

STATION/POSITION TIME  TEMP    WIND        PRES    WAVE
                       AIR SEA DIR/SP/G            HT/PER
                 (UTC) (F)     (DEG/KT/KT) (MB)    (FT/S)
N MID LAKE BUOY  0550   66 65  230/ 10/ 10 1011.7R   1/ 3
NORTHPORT PIER   0500   64     230/  3/  6 1011.9R
SISTER BAY       0511   68     240/  6/  7   N/A
ALGOMA LAKESHORE 0508             CALM       N/A
KEWAUNEE LAKESHO 0500   62     280/  3/  5 1011.9R
SHEBOYGAN LAKESH 0600   65 52  250/  8/  9 1014.1R
ATWATER BUOY     0500   68     220/  6/  6 1015.2R
MILWAUKEE LAKESH 0500   70     240/  7/  7   N/A
S MID LAKE BUOY  0550   71 71  210/  6/  8 1014.6R   0
KENOSHA   LAKESH 0600   68     250/  7/  7 1014.9R
$$

TC  - TEMPERATURE IN CELSIUS
VSB - VISIBILITY IN STATUTE MILES
WCI - WIND CHILL INDEX
HX  - HEAT INDEX




USA.gov is the U.S. government's official web portal to all federal, state and local government web resources and services.